, NM

(GMT )
Holloman AFB

Weather History for KHMN - November, 2012

Change the Weather History Date:

Thursday, November 8, 2012

  Actual Average Record
Temperature  
Mean Temperature 61 °F -  
Max Temperature 78 °F 63 °F 78 °F (2005)
Min Temperature 44 °F 35 °F 24 °F (2008)
Degree Days  
Heating Degree Days 4    
Growing Degree Days 11 (Base 50)    
Moisture  
Dew Point 25 °F    
Average Humidity 24    
Maximum Humidity 35    
Minimum Humidity 16    
Precipitation  
Precipitation 0.00 in - - ()
Sea Level Pressure  
Sea Level Pressure 29.92 in    
Wind  
Wind Speed 5 mph (South)    
Max Wind Speed 12 mph    
Max Gust Speed -    
Visibility 10 miles    
Events      
Averages and records for this station are not official NWS values.
T = Trace of Precipitation, MM = Missing Value Source: NWS Daily Summary

Daily Weather History Graph

Daily Weather History Graph

Search for Another Location

Airport or City:

Trip Planner

Search our weather history database for the weather conditions in past years. The results will help you decide how hot, cold, wet, or windy it might be!

Date:

Astronomy

Nov. 08, 2012 Rise Set
Actual Time 6:28 AM MST 5:07 PM MST
Civil Twilight 6:03 AM MST 5:33 PM MST
Nautical Twilight 5:33 AM MST 6:02 PM MST
Astronomical Twilight 5:04 AM MST 6:31 PM MST
Moon 12:45 AM MST (11/8) 1:33 PM MST (11/8)
Length of Visible Light 11h 29m
Length of Day
10h 38m
Waning Crescent, 32% of the Moon is Illuminated
Nov 8
Waning Crescent
Nov 13
New
Nov 20
First Quarter
Nov 28
Full
Dec 6
Last Quarter

Hourly Weather History & Observations

Time (MST) Temp. Windchill Dew Point Humidity Pressure Visibility Wind Dir Wind Speed Gust Speed Precip Events Conditions
12:55 AM 50.2 °F - 19.2 °F 29% 29.88 in 10.0 mi ESE 4.6 mph - N/A   Clear
1:55 AM 50.9 °F - 19.2 °F 29% 29.86 in 10.0 mi Calm Calm - N/A   Clear
2:55 AM 46.4 °F - 18.1 °F 32% 29.87 in 10.0 mi Calm Calm - N/A   Clear
3:55 AM 53.6 °F - 20.5 °F 27% 29.84 in 10.0 mi SE 4.6 mph - N/A   Clear
4:55 AM 44.1 °F - 17.6 °F 35% 29.89 in 10.0 mi Calm Calm - N/A   Clear
5:55 AM 45.7 °F - 18.5 °F 34% 29.91 in 10.0 mi Calm Calm - N/A   Clear
6:55 AM 46.0 °F 44.8 °F 19.4 °F 35% 29.94 in 10.0 mi East 3.5 mph - N/A   Clear
7:55 AM 51.1 °F - 21.6 °F 31% 29.94 in 10.0 mi SSE 4.6 mph - N/A   Clear
8:55 AM 58.6 °F - 22.3 °F 25% 29.92 in 10.0 mi South 3.5 mph - N/A   Clear
9:55 AM 68.7 °F - 25.2 °F 19% 29.88 in 10.0 mi South 10.4 mph - N/A   Clear
12:10 PM 75.2 °F - 26.6 °F 17% 30.01 in 10.0 mi South 11.5 mph - N/A   Clear
12:55 PM 77.2 °F - 26.8 °F 16% 29.80 in 10.0 mi South 9.2 mph - N/A   Mostly Cloudy
1:55 PM 77.0 °F - 28.4 °F 17% 29.96 in 10.0 mi South 9.2 mph - N/A   Mostly Cloudy
1:58 PM - - - N/A% - - South 8.1 mph - N/A   Unknown
2:28 PM 78.8 °F - 28.4 °F 16% 29.96 in 10.0 mi SSW 9.2 mph - N/A   Clear
2:58 PM 78.8 °F - 28.4 °F 16% 29.95 in 10.0 mi Variable 4.6 mph - N/A   Clear
3:55 PM 78.8 °F - 28.4 °F 16% 29.95 in 10.0 mi Variable 4.6 mph - N/A   Clear
4:20 PM 77.0 °F - 30.2 °F 18% 29.94 in 10.0 mi SSW 10.4 mph - N/A   Light Drizzle
4:27 PM 75.2 °F - 30.2 °F 19% 29.94 in 10.0 mi SSW 10.4 mph - N/A   Clear
4:58 PM 74.5 °F - 31.3 °F 20% 29.93 in 10.0 mi South 9.2 mph - 0.00 in   Clear
5:58 PM 69.3 °F - 30.4 °F 24% 29.94 in 10.0 mi South 9.2 mph - N/A   Clear
6:58 PM 67.3 °F - 29.7 °F 25% 29.95 in 10.0 mi SSE 6.9 mph - N/A   Partly Cloudy
7:58 PM 66.4 °F - 27.9 °F 24% 29.97 in 10.0 mi SSW 5.8 mph - N/A   Scattered Clouds
8:58 PM 65.1 °F - 25.7 °F 23% 29.97 in 10.0 mi SSW 9.2 mph - N/A   Partly Cloudy
9:58 PM 59.9 °F - 25.2 °F 26% 29.98 in 10.0 mi South 5.8 mph - N/A   Clear
10:58 PM 52.7 °F - 23.0 °F 31% 29.99 in 10.0 mi SE 5.8 mph - N/A   Clear
11:58 PM 58.6 °F - 25.5 °F 28% 29.81 in 10.0 mi SSE 10.4 mph - N/A   Partly Cloudy